[Date Prev][Date Next][Thread Prev][Thread Next] - [Date Index][Thread Index][Author Index]
2 Line ISS Keps 2-28
- Subject: [sarex] 2 Line ISS Keps 2-28
- From: "Dave Larsen PhD" <doc@xxxxxxxxxxx>
- Date: Thu, 28 Feb 2002 02:55:04 -0800
ISS
1 25544U 98067A 02059.14953704 .00059282 00000-0 68127-3 0 1253
2 25544 51.6358 240.8519 0010749 124.1258 34.2410 15.61383440187020
----
Via the sarex mailing list at AMSAT.ORG courtesy of AMSAT-NA.
To unsubscribe, send "unsubscribe sarex" to Majordomo@amsat.org
AMSAT Home